Location: Recife
(8.0585°S, 34.8848°W)
Time: 21:38:23
(UTC-03:00)

Vanguard 2 - Pass Details

Date: 23 April 2026
Orbit: 553 x 2895 km, 32.9° (Epoch: 17 May)

Event Time Altitude Azimuth Distance (km) Brightness Sun altitude
Rises 20:45:04 0° 256° (WSW) 5,057 12.2 -52.2°
Reaches altitude 10° 20:48:45 10° 244° (WSW) 4,403 11.7 -53.1°
Enters shadow 20:56:01 27° 209° (SSW) 3,771 10.9 -54.8°
